Wetterdaten: Freitag, 05.05.2017
Datum Zeit Temp. A. Feuchte A. Luftdruck Regen Wind Richtung Richtung Sonnenschein Helligkeit Solar
05.05.2017 00:00 9,5 C 81 % 1018,8 hPa 0,0 l/m 16,6 km/h (3 Bft) N-NO22.5 15 0 min 6,45 klux 0 W/m
05.05.2017 00:05 9,4 C 81 % 1018,8 hPa 0,0 l/m 21,1 km/h (4 Bft) N-NO45 30 0 min 6,45 klux 0 W/m
05.05.2017 00:10 9,4 C 81 % 1018,8 hPa 0,0 l/m 20,3 km/h (4 Bft) N-NO22.5 30 0 min 6,45 klux 0 W/m
05.05.2017 00:15 9,4 C 81 % 1018,8 hPa 0,0 l/m 10,7 km/h (2 Bft) N22.5 10 0 min 6,45 klux 0 W/m
05.05.2017 00:20 9,4 C 82 % 1018,8 hPa 0,0 l/m 17,6 km/h (3 Bft) N22.5 10 0 min 6,45 klux 0 W/m
05.05.2017 00:25 9,3 C 82 % 1018,8 hPa 0,0 l/m 13,3 km/h (3 Bft) N-NO22.5 15 0 min 6,45 klux 0 W/m
05.05.2017 00:30 9,2 C 82 % 1018,8 hPa 0,0 l/m 17,0 km/h (3 Bft) N-NO22.5 15 0 min 6,45 klux 0 W/m
05.05.2017 00:35 9,2 C 83 % 1018,8 hPa 0,0 l/m 15,4 km/h (3 Bft) N-NO45 25 0 min 6,45 klux 0 W/m
05.05.2017 00:40 9,2 C 83 % 1018,8 hPa 0,0 l/m 18,3 km/h (3 Bft) N-NO22.5 30 0 min 6,45 klux 0 W/m
05.05.2017 00:45 9,2 C 83 % 1018,8 hPa 0,0 l/m 15,8 km/h (3 Bft) NO22.5 35 0 min 6,45 klux 0 W/m
05.05.2017 00:50 9,1 C 83 % 1018,8 hPa 0,0 l/m 20,3 km/h (4 Bft) N-NO45 30 0 min 6,45 klux 0 W/m
05.05.2017 00:55 9,1 C 84 % 1018,8 hPa 0,0 l/m 23,9 km/h (4 Bft) N-NO22.5 25 0 min 6,45 klux 0 W/m
05.05.2017 01:00 9,1 C 84 % 1018,8 hPa 0,0 l/m 23,3 km/h (4 Bft) NO22.5 35 0 min 6,45 klux 0 W/m
05.05.2017 01:05 9,1 C 84 % 1018,8 hPa 0,0 l/m 16,9 km/h (3 Bft) N-NO45 25 0 min 6,45 klux 0 W/m
05.05.2017 01:10 9,1 C 84 % 1018,8 hPa 0,0 l/m 24,0 km/h (4 Bft) N-NO22.5 25 0 min 6,45 klux 0 W/m
05.05.2017 01:15 9,1 C 84 % 1018,8 hPa 0,0 l/m 18,1 km/h (3 Bft) N22.5 10 0 min 6,45 klux 0 W/m
05.05.2017 01:20 9,1 C 84 % 1018,8 hPa 0,0 l/m 13,9 km/h (3 Bft) N22.5 10 0 min 6,45 klux 0 W/m
05.05.2017 01:25 9,0 C 84 % 1018,8 hPa 0,0 l/m 17,5 km/h (3 Bft) N-NO22.5 20 0 min 6,45 klux 0 W/m
05.05.2017 01:30 8,9 C 84 % 1018,8 hPa 0,0 l/m 17,8 km/h (3 Bft) N22.5 10 0 min 6,45 klux 0 W/m
05.05.2017 01:35 8,8 C 85 % 1018,8 hPa 0,0 l/m 16,1 km/h (3 Bft) N-NO22.5 20 0 min 6,45 klux 0 W/m
05.05.2017 01:40 8,8 C 85 % 1018,8 hPa 0,0 l/m 15,3 km/h (3 Bft) N-NO45 30 0 min 6,45 klux 0 W/m
05.05.2017 01:45 8,8 C 85 % 1018,8 hPa 0,0 l/m 16,4 km/h (3 Bft) N-NO22.5 25 0 min 6,45 klux 0 W/m
05.05.2017 01:50 8,8 C 85 % 1018,8 hPa 0,0 l/m 14,0 km/h (3 Bft) NO22.5 35 0 min 6,45 klux 0 W/m
05.05.2017 01:55 8,6 C 85 % 1018,8 hPa 0,0 l/m 18,9 km/h (3 Bft) N67.5 10 0 min 6,45 klux 0 W/m
05.05.2017 02:01 8,6 C 85 % 1018,8 hPa 0,0 l/m 22,3 km/h (4 Bft) N-NO22.5 20 0 min 6,45 klux 0 W/m
05.05.2017 02:05 8,4 C 85 % 1018,8 hPa 0,0 l/m 19,3 km/h (3 Bft) N-NO22.5 15 0 min 6,45 klux 0 W/m
05.05.2017 02:10 8,3 C 86 % 1018,8 hPa 0,1 l/m 19,6 km/h (3 Bft) N-NO22.5 20 0 min 6,45 klux 0 W/m
05.05.2017 02:15 8,2 C 86 % 1018,8 hPa 0,0 l/m 11,3 km/h (2 Bft) N-NO22.5 30 0 min 6,45 klux 0 W/m
05.05.2017 02:20 8,2 C 86 % 1018,8 hPa 0,0 l/m 16,1 km/h (3 Bft) N-NO67.5 15 0 min 6,45 klux 0 W/m
05.05.2017 02:25 8,1 C 86 % 1018,8 hPa 0,0 l/m 15,9 km/h (3 Bft) N-NO45 15 0 min 6,45 klux 0 W/m
05.05.2017 02:30 8,1 C 86 % 1018,8 hPa 0,0 l/m 20,6 km/h (4 Bft) N-NO45 30 0 min 6,45 klux 0 W/m
05.05.2017 02:35 8,0 C 86 % 1018,8 hPa 0,0 l/m 26,7 km/h (4 Bft) NO22.5 35 0 min 6,45 klux 0 W/m
05.05.2017 02:40 8,0 C 86 % 1018,8 hPa 0,0 l/m 17,3 km/h (3 Bft) NO45 40 0 min 6,45 klux 0 W/m
05.05.2017 02:45 8,0 C 87 % 1018,8 hPa 0,0 l/m 19,4 km/h (3 Bft) N-NO22.5 25 0 min 6,45 klux 0 W/m
05.05.2017 02:50 8,0 C 87 % 1018,8 hPa 0,0 l/m 21,1 km/h (4 Bft) NO22.5 35 0 min 6,45 klux 0 W/m
05.05.2017 02:55 8,0 C 87 % 1018,8 hPa 0,0 l/m 16,3 km/h (3 Bft) N-NO45 20 0 min 6,45 klux 0 W/m
05.05.2017 03:00 8,0 C 87 % 1018,8 hPa 0,0 l/m 18,1 km/h (3 Bft) N22.5 10 0 min 6,45 klux 0 W/m
05.05.2017 03:05 8,0 C 86 % 1018,8 hPa 0,0 l/m 14,0 km/h (3 Bft) N-NO22.5 20 0 min 6,45 klux 0 W/m
05.05.2017 03:10 8,0 C 86 % 1018,8 hPa 0,0 l/m 16,1 km/h (3 Bft) N-NO45 25 0 min 6,45 klux 0 W/m
05.05.2017 03:15 8,0 C 86 % 1017,8 hPa 0,0 l/m 14,8 km/h (3 Bft) N-NO22.5 15 0 min 6,45 klux 0 W/m
05.05.2017 03:20 8,0 C 86 % 1017,8 hPa 0,0 l/m 13,4 km/h (3 Bft) N-NO45 15 0 min 6,45 klux 0 W/m
05.05.2017 03:25 8,0 C 86 % 1018,8 hPa 0,0 l/m 19,4 km/h (3 Bft) N-NO45 25 0 min 6,45 klux 0 W/m
05.05.2017 03:30 8,0 C 86 % 1018,8 hPa 0,0 l/m 14,2 km/h (3 Bft) N22.5 10 0 min 6,45 klux 0 W/m
05.05.2017 03:35 8,0 C 86 % 1017,8 hPa 0,0 l/m 13,1 km/h (3 Bft) N-NO45 15 0 min 6,45 klux 0 W/m
05.05.2017 03:40 8,0 C 86 % 1017,8 hPa 0,0 l/m 11,5 km/h (2 Bft) N-NO22.5 15 0 min 6,45 klux 0 W/m
05.05.2017 03:45 8,0 C 86 % 1017,8 hPa 0,0 l/m 12,2 km/h (2 Bft) N22.5 10 0 min 6,45 klux 0 W/m
05.05.2017 03:50 8,0 C 86 % 1018,8 hPa 0,0 l/m 14,6 km/h (3 Bft) N-NO22.5 20 0 min 6,45 klux 0 W/m
05.05.2017 03:56 8,0 C 86 % 1018,8 hPa 0,0 l/m 15,3 km/h (3 Bft) N-NO45 15 0 min 6,45 klux 0 W/m
05.05.2017 04:00 8,0 C 86 % 1017,8 hPa 0,0 l/m 10,3 km/h (2 Bft) N-NO22.5 25 0 min 6,45 klux 0 W/m
05.05.2017 04:05 8,0 C 86 % 1017,8 hPa 0,0 l/m 15,7 km/h (3 Bft) N-NO22.5 20 0 min 6,45 klux 0 W/m
05.05.2017 04:10 8,0 C 86 % 1017,8 hPa 0,0 l/m 17,6 km/h (3 Bft) N22.5 10 0 min 6,45 klux 0 W/m
05.05.2017 04:15 8,0 C 85 % 1018,8 hPa 0,1 l/m 17,1 km/h (3 Bft) N-NO45 20 0 min 6,45 klux 0 W/m
05.05.2017 04:20 8,0 C 85 % 1018,8 hPa 0,0 l/m 13,1 km/h (3 Bft) N22.5 10 0 min 6,45 klux 0 W/m
05.05.2017 04:25 8,0 C 85 % 1018,8 hPa 0,0 l/m 12,9 km/h (3 Bft) N-NO45 15 0 min 6,45 klux 0 W/m
05.05.2017 04:30 8,0 C 85 % 1018,8 hPa 0,0 l/m 14,6 km/h (3 Bft) N-NO22.5 15 0 min 6,45 klux 0 W/m
05.05.2017 04:35 8,0 C 85 % 1018,8 hPa 0,0 l/m 14,8 km/h (3 Bft) N-NO22.5 15 0 min 6,45 klux 0 W/m
05.05.2017 04:40 8,0 C 85 % 1018,8 hPa 0,0 l/m 13,1 km/h (3 Bft) N-NO45 20 0 min 6,45 klux 0 W/m
05.05.2017 04:45 8,0 C 85 % 1018,8 hPa 0,0 l/m 12,6 km/h (3 Bft) N22.5 5 0 min 6,45 klux 0 W/m
05.05.2017 04:50 8,0 C 85 % 1018,8 hPa 0,0 l/m 11,3 km/h (2 Bft) N22.5 10 0 min 6,45 klux 0 W/m
05.05.2017 04:55 8,0 C 85 % 1018,8 hPa 0,0 l/m 10,0 km/h (2 Bft) N 360 0 min 6,45 klux 0 W/m
05.05.2017 05:00 8,0 C 85 % 1017,8 hPa 0,0 l/m 10,3 km/h (2 Bft) N22.5 10 0 min 6,45 klux 0 W/m
05.05.2017 05:05 8,0 C 85 % 1017,8 hPa 0,0 l/m 13,8 km/h (3 Bft) N-NO22.5 15 0 min 6,45 klux 0 W/m
05.05.2017 05:10 8,0 C 85 % 1017,8 hPa 0,0 l/m 16,3 km/h (3 Bft) N22.5 10 0 min 6,45 klux 0 W/m
05.05.2017 05:15 8,0 C 85 % 1017,8 hPa 0,0 l/m 12,8 km/h (3 Bft) N-NO22.5 20 0 min 6,45 klux 0 W/m
05.05.2017 05:20 8,0 C 85 % 1017,8 hPa 0,0 l/m 15,6 km/h (3 Bft) N45 10 0 min 6,45 klux 0 W/m
05.05.2017 05:25 8,0 C 85 % 1017,8 hPa 0,0 l/m 11,3 km/h (2 Bft) N22.5 10 0 min 6,45 klux 0 W/m
05.05.2017 05:30 8,0 C 85 % 1018,8 hPa 0,0 l/m 13,3 km/h (3 Bft) N22.5 10 0 min 6,45 klux 0 W/m
05.05.2017 05:35 8,0 C 85 % 1018,8 hPa 0,0 l/m 13,5 km/h (3 Bft) N-NO22.5 15 0 min 6,45 klux 0 W/m
05.05.2017 05:40 8,0 C 85 % 1017,8 hPa 0,0 l/m 12,7 km/h (3 Bft) N-NO45 15 0 min 6,45 klux 0 W/m
05.05.2017 05:45 8,0 C 85 % 1017,8 hPa 0,0 l/m 8,9 km/h (2 Bft) N22.5 10 0 min 6,45 klux 0 W/m
05.05.2017 05:50 8,0 C 85 % 1017,8 hPa 0,0 l/m 14,4 km/h (3 Bft) N22.5 10 0 min 6,45 klux 0 W/m
05.05.2017 05:55 8,0 C 85 % 1017,8 hPa 0,0 l/m 11,7 km/h (2 Bft) N22.5 10 0 min 6,45 klux 0 W/m
05.05.2017 06:00 7,9 C 85 % 1017,8 hPa 0,0 l/m 15,5 km/h (3 Bft) N-NO22.5 15 0 min 6,45 klux 0 W/m
05.05.2017 06:05 7,9 C 85 % 1018,8 hPa 0,0 l/m 9,3 km/h (2 Bft) N 5 0 min 6,45 klux 44 W/m
05.05.2017 06:10 8,0 C 85 % 1018,8 hPa 0,0 l/m 9,1 km/h (2 Bft) N22.5 5 0 min 6,45 klux 44 W/m
05.05.2017 06:15 7,9 C 86 % 1018,8 hPa 0,0 l/m 4,3 km/h (1 Bft) N-NO22.5 25 5 min 6,45 klux 44 W/m
05.05.2017 06:20 8,0 C 86 % 1018,8 hPa 0,0 l/m 10,5 km/h (2 Bft) N-NO22.5 30 5 min 6,45 klux 44 W/m
05.05.2017 06:25 7,9 C 86 % 1018,8 hPa 0,0 l/m 11,6 km/h (2 Bft) N22.5 10 5 min 6,45 klux 44 W/m
05.05.2017 06:30 7,9 C 86 % 1018,8 hPa 0,0 l/m 8,0 km/h (2 Bft) N 360 5 min 6,45 klux 44 W/m
05.05.2017 06:35 7,9 C 86 % 1018,8 hPa 0,0 l/m 9,4 km/h (2 Bft) N-NO22.5 30 5 min 6,45 klux 44 W/m
05.05.2017 06:40 8,0 C 86 % 1018,8 hPa 0,0 l/m 7,4 km/h (2 Bft) N-NO22.5 25 0 min 6,45 klux 44 W/m
05.05.2017 06:45 8,0 C 86 % 1018,8 hPa 0,0 l/m 6,2 km/h (2 Bft) N22.5 10 0 min 6,45 klux 44 W/m
05.05.2017 06:50 8,0 C 86 % 1018,8 hPa 0,0 l/m 6,4 km/h (2 Bft) N22.5 360 0 min 6,45 klux 44 W/m
05.05.2017 06:55 8,0 C 86 % 1018,8 hPa 0,0 l/m 13,4 km/h (3 Bft) N-NO22.5 25 0 min 6,45 klux 44 W/m
05.05.2017 07:00 8,0 C 86 % 1017,8 hPa 0,0 l/m 11,7 km/h (2 Bft) N-NO22.5 20 0 min 6,45 klux 44 W/m
05.05.2017 07:05 7,9 C 86 % 1017,8 hPa 0,0 l/m 10,5 km/h (2 Bft) N22.5 10 0 min 6,45 klux 44 W/m
05.05.2017 07:10 8,0 C 86 % 1018,8 hPa 0,0 l/m 11,1 km/h (2 Bft) N-NO22.5 15 0 min 6,45 klux 44 W/m
05.05.2017 07:15 8,0 C 86 % 1018,8 hPa 0,0 l/m 10,8 km/h (2 Bft) N-NO45 30 0 min 6,45 klux 44 W/m
05.05.2017 07:20 8,0 C 86 % 1018,8 hPa 0,0 l/m 8,3 km/h (2 Bft) N-NO22.5 15 0 min 6,45 klux 44 W/m
05.05.2017 07:25 8,0 C 86 % 1018,8 hPa 0,0 l/m 9,2 km/h (2 Bft) N-NO22.5 30 0 min 6,45 klux 44 W/m
05.05.2017 07:30 8,0 C 86 % 1018,8 hPa 0,0 l/m 7,2 km/h (2 Bft) N-NO22.5 25 0 min 6,45 klux 44 W/m
05.05.2017 07:35 8,0 C 86 % 1018,8 hPa 0,0 l/m 7,4 km/h (2 Bft) NO22.5 40 0 min 6,45 klux 44 W/m
05.05.2017 07:40 8,0 C 86 % 1018,8 hPa 0,0 l/m 9,5 km/h (2 Bft) N-NO22.5 20 0 min 6,45 klux 44 W/m
05.05.2017 07:45 8,0 C 86 % 1018,8 hPa 0,0 l/m 12,0 km/h (2 Bft) N-NO22.5 20 0 min 6,45 klux 44 W/m
05.05.2017 07:50 8,0 C 86 % 1018,8 hPa 0,0 l/m 7,8 km/h (2 Bft) N-NO22.5 20 0 min 6,45 klux 44 W/m
05.05.2017 07:55 8,0 C 86 % 1018,8 hPa 0,0 l/m 13,1 km/h (3 Bft) N-NO22.5 20 0 min 6,45 klux 44 W/m
05.05.2017 08:00 8,1 C 86 % 1018,8 hPa 0,0 l/m 8,2 km/h (2 Bft) NO45 40 0 min 6,45 klux 44 W/m
05.05.2017 08:05 8,1 C 86 % 1018,8 hPa 0,0 l/m 13,0 km/h (3 Bft) N-NO22.5 30 0 min 6,45 klux 44 W/m
05.05.2017 08:10 8,1 C 86 % 1018,8 hPa 0,0 l/m 11,0 km/h (2 Bft) NO22.5 35 0 min 6,45 klux 44 W/m
05.05.2017 08:15 8,2 C 86 % 1018,8 hPa 0,0 l/m 5,4 km/h (2 Bft) NO 40 0 min 6,45 klux 44 W/m
05.05.2017 08:21 8,2 C 86 % 1018,8 hPa 0,0 l/m 7,1 km/h (2 Bft) NO 35 0 min 6,45 klux 44 W/m
05.05.2017 08:25 8,2 C 86 % 1018,8 hPa 0,0 l/m 0,1 km/h (0 Bft) N-NO 30 0 min 6,45 klux 44 W/m
05.05.2017 08:30 8,2 C 86 % 1018,8 hPa 0,0 l/m 0,0 km/h (0 Bft) N-NO 30 0 min 6,45 klux 44 W/m
05.05.2017 08:35 8,2 C 86 % 1018,8 hPa 0,0 l/m 0,0 km/h (0 Bft) N-NO 30 0 min 6,45 klux 44 W/m
05.05.2017 08:40 8,3 C 86 % 1018,8 hPa 0,0 l/m 0,0 km/h (0 Bft) N-NO 30 0 min 6,45 klux 44 W/m
05.05.2017 08:46 8,3 C 86 % 1018,8 hPa 0,0 l/m 0,4 km/h (0 Bft) N-NO 30 0 min 6,45 klux 44 W/m
05.05.2017 08:50 8,4 C 86 % 1018,8 hPa 0,0 l/m 0,9 km/h (0 Bft) N-NO 30 0 min 6,45 klux 44 W/m
05.05.2017 08:55 8,4 C 86 % 1018,8 hPa 0,0 l/m 9,4 km/h (2 Bft) N-NO 30 0 min 6,45 klux 44 W/m
05.05.2017 09:00 8,4 C 86 % 1018,8 hPa 0,0 l/m 9,4 km/h (2 Bft) N-NO 30 0 min 6,45 klux 44 W/m
05.05.2017 09:05 8,4 C 86 % 1018,8 hPa 0,0 l/m 7,2 km/h (2 Bft) O-NO22.5 75 0 min 6,45 klux 44 W/m
05.05.2017 09:10 8,4 C 85 % 1018,8 hPa 0,0 l/m 6,1 km/h (2 Bft) O-NO22.5 70 0 min 6,45 klux 44 W/m
05.05.2017 09:15 8,5 C 85 % 1018,8 hPa 0,0 l/m 9,2 km/h (2 Bft) NO22.5 50 0 min 6,45 klux 44 W/m
05.05.2017 09:20 8,6 C 85 % 1018,8 hPa 0,0 l/m 3,4 km/h (1 Bft) NO 35 0 min 6,45 klux 44 W/m
05.05.2017 09:25 8,7 C 85 % 1018,8 hPa 0,0 l/m 8,8 km/h (2 Bft) NO22.5 35 0 min 6,45 klux 44 W/m
05.05.2017 09:31 8,7 C 85 % 1018,8 hPa 0,0 l/m 6,4 km/h (2 Bft) NO22.5 35 0 min 6,45 klux 44 W/m
05.05.2017 09:35 8,7 C 85 % 1018,8 hPa 0,0 l/m 8,6 km/h (2 Bft) NO 50 0 min 6,45 klux 44 W/m
05.05.2017 09:40 8,8 C 85 % 1018,8 hPa 0,0 l/m 5,2 km/h (1 Bft) NO 40 0 min 6,45 klux 44 W/m
05.05.2017 09:45 8,8 C 85 % 1018,8 hPa 0,0 l/m 14,2 km/h (3 Bft) NO 55 0 min 6,45 klux 44 W/m
05.05.2017 09:50 8,9 C 85 % 1018,8 hPa 0,0 l/m 10,4 km/h (2 Bft) NO22.5 35 0 min 6,45 klux 44 W/m
05.05.2017 09:56 8,9 C 84 % 1018,8 hPa 0,0 l/m 8,1 km/h (2 Bft) N-NO22.5 15 0 min 6,45 klux 44 W/m
05.05.2017 10:00 8,8 C 84 % 1018,8 hPa 0,0 l/m 7,1 km/h (2 Bft) N-NO 25 0 min 6,45 klux 44 W/m
05.05.2017 10:05 8,9 C 84 % 1018,8 hPa 0,0 l/m 6,5 km/h (2 Bft) NO22.5 40 0 min 6,45 klux 44 W/m
05.05.2017 10:11 9,0 C 84 % 1018,8 hPa 0,0 l/m 4,0 km/h (1 Bft) NO 35 0 min 6,45 klux 44 W/m
05.05.2017 10:15 9,0 C 84 % 1018,8 hPa 0,0 l/m 3,3 km/h (1 Bft) NO 40 0 min 6,45 klux 44 W/m
05.05.2017 10:20 9,1 C 84 % 1018,8 hPa 0,0 l/m 0,4 km/h (0 Bft) NO 40 0 min 6,45 klux 44 W/m
05.05.2017 10:25 9,0 C 83 % 1018,8 hPa 0,0 l/m 0,0 km/h (0 Bft) NO 35 0 min 6,45 klux 44 W/m
05.05.2017 10:30 9,1 C 83 % 1018,8 hPa 0,0 l/m 3,3 km/h (1 Bft) NO 35 0 min 6,45 klux 44 W/m
05.05.2017 10:36 9,1 C 83 % 1018,8 hPa 0,0 l/m 5,4 km/h (2 Bft) N22.5 355 0 min 6,45 klux 44 W/m
05.05.2017 10:40 9,1 C 82 % 1018,8 hPa 0,0 l/m 0,4 km/h (0 Bft) N-NW 340 0 min 6,45 klux 44 W/m
05.05.2017 10:45 9,2 C 82 % 1018,8 hPa 0,0 l/m 1,0 km/h (0 Bft) N-NW 340 0 min 6,45 klux 44 W/m
05.05.2017 10:50 9,3 C 82 % 1018,8 hPa 0,0 l/m 0,9 km/h (0 Bft) N 10 0 min 6,45 klux 44 W/m
05.05.2017 10:55 9,4 C 82 % 1018,8 hPa 0,0 l/m 4,2 km/h (1 Bft) N22.5 360 0 min 6,45 klux 44 W/m
05.05.2017 11:01 9,4 C 82 % 1018,8 hPa 0,0 l/m 13,5 km/h (3 Bft) NO45 35 0 min 6,45 klux 44 W/m
05.05.2017 11:05 9,4 C 81 % 1018,8 hPa 0,0 l/m 11,2 km/h (2 Bft) N-NO22.5 30 0 min 6,45 klux 44 W/m
05.05.2017 11:10 9,5 C 81 % 1018,8 hPa 0,0 l/m 10,8 km/h (2 Bft) NO22.5 45 0 min 6,45 klux 44 W/m
05.05.2017 11:16 9,5 C 81 % 1018,8 hPa 0,0 l/m 9,4 km/h (2 Bft) N-NO 30 0 min 6,45 klux 44 W/m
05.05.2017 11:20 9,5 C 81 % 1018,8 hPa 0,0 l/m 7,5 km/h (2 Bft) N 10 0 min 6,45 klux 44 W/m
05.05.2017 11:25 9,6 C 81 % 1018,8 hPa 0,0 l/m 4,7 km/h (1 Bft) NO22.5 35 0 min 6,45 klux 44 W/m
05.05.2017 11:30 9,6 C 81 % 1018,8 hPa 0,0 l/m 0,0 km/h (0 Bft) N-NO 30 0 min 6,45 klux 44 W/m
05.05.2017 11:35 9,6 C 80 % 1018,8 hPa 0,0 l/m 0,6 km/h (0 Bft) NO 35 0 min 6,45 klux 44 W/m
05.05.2017 11:41 9,7 C 80 % 1018,8 hPa 0,0 l/m 6,4 km/h (2 Bft) N22.5 10 0 min 6,45 klux 44 W/m
05.05.2017 11:45 9,7 C 80 % 1018,8 hPa 0,0 l/m 6,4 km/h (2 Bft) N45 10 0 min 6,45 klux 44 W/m
05.05.2017 11:50 9,7 C 80 % 1018,8 hPa 0,0 l/m 7,2 km/h (2 Bft) N22.5 5 0 min 6,45 klux 44 W/m
05.05.2017 11:55 9,7 C 80 % 1018,8 hPa 0,0 l/m 4,2 km/h (1 Bft) N 355 0 min 6,45 klux 44 W/m
05.05.2017 12:01 9,7 C 80 % 1018,8 hPa 0,0 l/m 4,2 km/h (1 Bft) N 355 0 min 6,45 klux 44 W/m
05.05.2017 12:05 9,7 C 80 % 1018,8 hPa 0,0 l/m 5,6 km/h (2 Bft) N22.5 360 0 min 6,45 klux 44 W/m
05.05.2017 12:10 9,9 C 79 % 1018,8 hPa 0,0 l/m 2,7 km/h (1 Bft) N 5 0 min 6,45 klux 44 W/m
05.05.2017 12:16 9,9 C 79 % 1018,8 hPa 0,0 l/m 0,0 km/h (0 Bft) N 5 0 min 6,45 klux 44 W/m
05.05.2017 12:20 9,9 C 79 % 1018,8 hPa 0,0 l/m 0,3 km/h (0 Bft) N 5 0 min 6,45 klux 44 W/m
05.05.2017 12:25 10,0 C 79 % 1018,8 hPa 0,0 l/m 7,7 km/h (2 Bft) N-NW22.5 345 0 min 6,45 klux 44 W/m
05.05.2017 12:30 10,1 C 79 % 1018,8 hPa 0,0 l/m 4,5 km/h (1 Bft) N 10 0 min 6,45 klux 44 W/m
05.05.2017 12:35 10,1 C 79 % 1018,8 hPa 0,0 l/m 4,5 km/h (1 Bft) N 10 0 min 6,45 klux 44 W/m
05.05.2017 12:41 10,1 C 79 % 1018,8 hPa 0,0 l/m 4,5 km/h (1 Bft) N 10 0 min 6,45 klux 44 W/m
05.05.2017 12:45 10,1 C 79 % 1018,8 hPa 0,0 l/m 10,1 km/h (2 Bft) N22.5 10 0 min 6,45 klux 44 W/m
05.05.2017 12:50 10,1 C 78 % 1018,8 hPa 0,0 l/m 8,7 km/h (2 Bft) N 355 0 min 6,45 klux 44 W/m
05.05.2017 12:55 10,3 C 78 % 1018,8 hPa 0,0 l/m 1,5 km/h (1 Bft) N 350 0 min 6,45 klux 44 W/m
05.05.2017 13:00 10,3 C 78 % 1018,8 hPa 0,0 l/m 1,5 km/h (1 Bft) N 350 0 min 6,45 klux 44 W/m
05.05.2017 13:05 10,3 C 78 % 1018,8 hPa 0,0 l/m 13,4 km/h (3 Bft) N-NO22.5 25 0 min 6,45 klux 44 W/m
05.05.2017 13:10 10,8 C 78 % 1018,8 hPa 0,0 l/m 17,2 km/h (3 Bft) N-NO22.5 15 0 min 6,45 klux 44 W/m
05.05.2017 13:15 11,1 C 77 % 1018,8 hPa 0,0 l/m 14,7 km/h (3 Bft) N-NO22.5 30 0 min 6,45 klux 44 W/m
05.05.2017 13:20 11,1 C 77 % 1018,8 hPa 0,0 l/m 12,9 km/h (3 Bft) N-NO22.5 25 0 min 6,45 klux 44 W/m
05.05.2017 13:25 11,4 C 75 % 1018,8 hPa 0,0 l/m 14,5 km/h (3 Bft) N22.5 5 0 min 6,45 klux 44 W/m
05.05.2017 13:30 11,5 C 74 % 1018,8 hPa 0,0 l/m 14,8 km/h (3 Bft) N-NO45 25 0 min 6,45 klux 44 W/m
05.05.2017 13:35 11,6 C 74 % 1018,8 hPa 0,0 l/m 15,4 km/h (3 Bft) NO22.5 35 0 min 6,45 klux 44 W/m
05.05.2017 13:40 11,5 C 73 % 1018,8 hPa 0,0 l/m 19,1 km/h (3 Bft) N-NO22.5 20 0 min 6,45 klux 44 W/m
05.05.2017 13:45 11,4 C 73 % 1018,8 hPa 0,0 l/m 20,8 km/h (4 Bft) NO45 35 0 min 6,45 klux 44 W/m
05.05.2017 13:50 11,3 C 74 % 1018,8 hPa 0,0 l/m 18,0 km/h (3 Bft) NO22.5 35 0 min 6,45 klux 44 W/m
05.05.2017 13:55 11,3 C 73 % 1018,8 hPa 0,0 l/m 18,1 km/h (3 Bft) N-NO22.5 20 0 min 6,45 klux 44 W/m
05.05.2017 14:00 11,4 C 73 % 1018,8 hPa 0,0 l/m 18,3 km/h (3 Bft) N-NO45 15 0 min 6,45 klux 44 W/m
05.05.2017 14:05 11,5 C 73 % 1018,8 hPa 0,0 l/m 15,7 km/h (3 Bft) N-NO22.5 30 0 min 6,45 klux 44 W/m
05.05.2017 14:10 11,6 C 73 % 1018,8 hPa 0,0 l/m 15,6 km/h (3 Bft) N-NO45 30 0 min 6,45 klux 44 W/m
05.05.2017 14:15 11,5 C 72 % 1018,8 hPa 0,0 l/m 15,6 km/h (3 Bft) NO45 40 0 min 6,45 klux 44 W/m
05.05.2017 14:20 11,4 C 72 % 1018,8 hPa 0,0 l/m 18,6 km/h (3 Bft) NO45 40 0 min 6,45 klux 44 W/m
05.05.2017 14:25 11,3 C 73 % 1018,8 hPa 0,0 l/m 14,5 km/h (3 Bft) N-NO22.5 25 0 min 6,45 klux 44 W/m
05.05.2017 14:30 11,3 C 72 % 1018,8 hPa 0,0 l/m 15,5 km/h (3 Bft) NO22.5 45 0 min 6,45 klux 44 W/m
05.05.2017 14:35 11,3 C 72 % 1018,8 hPa 0,0 l/m 15,5 km/h (3 Bft) NO22.5 45 0 min 6,45 klux 44 W/m
05.05.2017 14:40 11,6 C 72 % 1018,8 hPa 0,0 l/m 15,5 km/h (3 Bft) NO22.5 45 0 min 6,45 klux 44 W/m
05.05.2017 14:45 11,4 C 72 % 1018,8 hPa 0,0 l/m 12,9 km/h (3 Bft) N-NO22.5 20 0 min 6,45 klux 44 W/m
05.05.2017 14:50 11,5 C 73 % 1018,8 hPa 0,0 l/m 10,7 km/h (2 Bft) N-NO22.5 30 0 min 6,45 klux 44 W/m
05.05.2017 14:55 11,5 C 73 % 1018,8 hPa 0,0 l/m 10,7 km/h (2 Bft) N-NO22.5 30 0 min 6,45 klux 44 W/m
05.05.2017 15:00 11,6 C 72 % 1018,8 hPa 0,0 l/m 10,7 km/h (2 Bft) N-NO22.5 30 0 min 6,45 klux 44 W/m
05.05.2017 15:05 11,6 C 72 % 1018,8 hPa 0,0 l/m 10,7 km/h (2 Bft) N-NO22.5 30 0 min 6,45 klux 44 W/m
05.05.2017 15:11 11,6 C 72 % 1018,8 hPa 0,0 l/m 12,6 km/h (3 Bft) NO22.5 50 0 min 6,45 klux 44 W/m
05.05.2017 15:15 12,0 C 71 % 1018,8 hPa 0,0 l/m 12,1 km/h (2 Bft) N-NO22.5 30 0 min 6,45 klux 44 W/m
05.05.2017 15:20 12,0 C 71 % 1018,8 hPa 0,0 l/m 12,8 km/h (3 Bft) NO22.5 45 0 min 6,45 klux 44 W/m
05.05.2017 15:25 11,8 C 70 % 1018,8 hPa 0,0 l/m 15,0 km/h (3 Bft) NO22.5 40 0 min 6,45 klux 44 W/m
05.05.2017 15:30 11,8 C 70 % 1018,8 hPa 0,0 l/m 13,0 km/h (3 Bft) N-NO 25 0 min 6,45 klux 44 W/m
05.05.2017 15:35 11,8 C 70 % 1018,8 hPa 0,0 l/m 7,5 km/h (2 Bft) N-NO22.5 25 0 min 6,45 klux 44 W/m
05.05.2017 15:40 11,8 C 70 % 1018,8 hPa 0,0 l/m 10,8 km/h (2 Bft) N-NO22.5 25 0 min 6,45 klux 44 W/m
05.05.2017 15:45 12,1 C 70 % 1018,8 hPa 0,0 l/m 9,1 km/h (2 Bft) N 350 0 min 6,45 klux 44 W/m
05.05.2017 15:50 12,1 C 70 % 1018,8 hPa 0,0 l/m 7,8 km/h (2 Bft) O-NO22.5 60 0 min 6,45 klux 44 W/m
05.05.2017 15:56 12,1 C 70 % 1017,8 hPa 0,0 l/m 10,6 km/h (2 Bft) NO22.5 40 0 min 6,45 klux 44 W/m
05.05.2017 16:00 12,1 C 70 % 1017,8 hPa 0,0 l/m 10,6 km/h (2 Bft) NO22.5 40 0 min 6,45 klux 44 W/m
05.05.2017 16:05 12,1 C 70 % 1017,8 hPa 0,0 l/m 9,2 km/h (2 Bft) N-NO22.5 30 0 min 6,45 klux 44 W/m
05.05.2017 16:10 12,5 C 70 % 1017,8 hPa 0,0 l/m 7,2 km/h (2 Bft) N-NO22.5 25 0 min 6,45 klux 44 W/m
05.05.2017 16:15 12,5 C 70 % 1017,8 hPa 0,0 l/m 10,7 km/h (2 Bft) N22.5 10 0 min 6,45 klux 44 W/m
05.05.2017 16:20 12,5 C 69 % 1017,8 hPa 0,0 l/m 5,0 km/h (1 Bft) N22.5 360 0 min 6,45 klux 44 W/m
05.05.2017 16:25 12,4 C 69 % 1017,8 hPa 0,0 l/m 5,0 km/h (1 Bft) N22.5 360 0 min 6,45 klux 44 W/m
05.05.2017 16:30 12,4 C 69 % 1017,8 hPa 0,0 l/m 5,0 km/h (1 Bft) N22.5 360 0 min 6,45 klux 44 W/m
05.05.2017 16:35 12,4 C 69 % 1017,8 hPa 0,0 l/m 6,7 km/h (2 Bft) N-NO 15 0 min 6,45 klux 44 W/m
05.05.2017 16:40 12,3 C 69 % 1017,8 hPa 0,0 l/m 7,0 km/h (2 Bft) N-NO22.5 15 0 min 6,45 klux 44 W/m
05.05.2017 16:45 12,3 C 69 % 1017,8 hPa 0,0 l/m 12,0 km/h (2 Bft) NO22.5 45 0 min 6,45 klux 44 W/m
05.05.2017 16:50 12,4 C 69 % 1017,8 hPa 0,0 l/m 9,4 km/h (2 Bft) NO22.5 40 0 min 6,45 klux 44 W/m
05.05.2017 16:55 12,4 C 70 % 1017,8 hPa 0,0 l/m 0,0 km/h (0 Bft) O-NO 60 0 min 6,45 klux 44 W/m
05.05.2017 17:00 12,4 C 69 % 1017,8 hPa 0,0 l/m 7,6 km/h (2 Bft) NO22.5 50 0 min 6,45 klux 44 W/m
05.05.2017 17:05 12,4 C 70 % 1017,8 hPa 0,0 l/m 8,3 km/h (2 Bft) O-NO45 60 0 min 6,45 klux 44 W/m
05.05.2017 17:10 12,4 C 69 % 1017,8 hPa 0,0 l/m 9,7 km/h (2 Bft) O22.5 90 0 min 6,45 klux 44 W/m
05.05.2017 17:15 12,3 C 70 % 1017,8 hPa 0,0 l/m 0,1 km/h (0 Bft) O-SO22.5 110 0 min 6,45 klux 44 W/m
05.05.2017 17:20 12,3 C 70 % 1017,8 hPa 0,0 l/m 3,3 km/h (1 Bft) O 90 0 min 6,45 klux 44 W/m
05.05.2017 17:25 12,3 C 70 % 1017,8 hPa 0,0 l/m 5,9 km/h (2 Bft) N-NO45 15 0 min 6,45 klux 44 W/m
05.05.2017 17:30 12,3 C 70 % 1017,8 hPa 0,0 l/m 0,6 km/h (0 Bft) N 355 0 min 6,45 klux 44 W/m
05.05.2017 17:35 12,4 C 70 % 1017,8 hPa 0,0 l/m 0,1 km/h (0 Bft) N 355 0 min 6,45 klux 44 W/m
05.05.2017 17:40 12,4 C 70 % 1017,8 hPa 0,0 l/m 7,6 km/h (2 Bft) O-NO45 65 0 min 6,45 klux 44 W/m
05.05.2017 17:45 12,3 C 70 % 1017,8 hPa 0,0 l/m 6,5 km/h (2 Bft) NO22.5 50 0 min 6,45 klux 44 W/m
05.05.2017 17:50 12,3 C 70 % 1017,8 hPa 0,0 l/m 17,3 km/h (3 Bft) NO22.5 35 0 min 6,45 klux 44 W/m
05.05.2017 17:55 12,3 C 70 % 1017,8 hPa 0,0 l/m 7,8 km/h (2 Bft) N 10 0 min 6,45 klux 44 W/m
05.05.2017 18:00 12,1 C 70 % 1017,8 hPa 0,0 l/m 6,8 km/h (2 Bft) O-NO67.5 70 0 min 6,45 klux 44 W/m
05.05.2017 18:05 12,0 C 71 % 1017,8 hPa 0,0 l/m 12,7 km/h (3 Bft) NO45 35 0 min 6,45 klux 44 W/m
05.05.2017 18:10 12,0 C 71 % 1017,8 hPa 0,0 l/m 17,0 km/h (3 Bft) NO22.5 35 0 min 6,45 klux 44 W/m
05.05.2017 18:15 12,0 C 71 % 1017,8 hPa 0,0 l/m 13,9 km/h (3 Bft) N67.5 10 0 min 6,45 klux 44 W/m
05.05.2017 18:21 12,0 C 71 % 1017,8 hPa 0,0 l/m 14,1 km/h (3 Bft) NO22.5 45 0 min 6,45 klux 44 W/m
05.05.2017 18:25 12,0 C 72 % 1017,8 hPa 0,0 l/m 17,5 km/h (3 Bft) NO22.5 50 0 min 6,45 klux 44 W/m
05.05.2017 18:30 12,0 C 71 % 1017,8 hPa 0,0 l/m 18,2 km/h (3 Bft) O45 80 0 min 6,45 klux 44 W/m
05.05.2017 18:35 11,9 C 71 % 1016,8 hPa 0,0 l/m 14,2 km/h (3 Bft) O22.5 80 0 min 6,45 klux 44 W/m
05.05.2017 18:40 11,9 C 71 % 1016,8 hPa 0,0 l/m 11,0 km/h (2 Bft) O-NO45 70 0 min 6,45 klux 44 W/m
05.05.2017 18:46 11,9 C 71 % 1016,8 hPa 0,0 l/m 13,8 km/h (3 Bft) O45 80 0 min 6,45 klux 44 W/m
05.05.2017 18:50 11,8 C 71 % 1016,8 hPa 0,0 l/m 17,6 km/h (3 Bft) O45 95 0 min 6,45 klux 44 W/m
05.05.2017 18:55 11,7 C 71 % 1016,8 hPa 0,0 l/m 17,1 km/h (3 Bft) O-NO22.5 75 0 min 6,45 klux 44 W/m
05.05.2017 19:00 11,8 C 71 % 1016,8 hPa 0,0 l/m 15,9 km/h (3 Bft) O45 80 0 min 6,45 klux 44 W/m
05.05.2017 19:05 11,8 C 71 % 1016,8 hPa 0,0 l/m 13,9 km/h (3 Bft) O-NO45 70 0 min 6,45 klux 44 W/m
05.05.2017 19:10 11,8 C 71 % 1016,8 hPa 0,0 l/m 13,5 km/h (3 Bft) O-NO22.5 75 0 min 6,45 klux 44 W/m
05.05.2017 19:15 11,7 C 72 % 1016,8 hPa 0,0 l/m 13,4 km/h (3 Bft) O45 85 0 min 6,45 klux 44 W/m
05.05.2017 19:20 11,7 C 72 % 1016,8 hPa 0,0 l/m 15,2 km/h (3 Bft) O67.5 95 0 min 6,45 klux 44 W/m
05.05.2017 19:26 11,6 C 72 % 1016,8 hPa 0,0 l/m 13,9 km/h (3 Bft) O22.5 95 0 min 6,45 klux 44 W/m
05.05.2017 19:30 11,5 C 72 % 1016,8 hPa 0,0 l/m 13,0 km/h (3 Bft) O45 85 0 min 6,45 klux 44 W/m
05.05.2017 19:35 11,4 C 72 % 1016,8 hPa 0,0 l/m 10,5 km/h (2 Bft) O22.5 85 0 min 6,45 klux 44 W/m
05.05.2017 19:40 11,5 C 73 % 1016,8 hPa 0,0 l/m 8,7 km/h (2 Bft) O22.5 90 0 min 6,45 klux 44 W/m
05.05.2017 19:45 11,5 C 73 % 1016,8 hPa 0,0 l/m 7,5 km/h (2 Bft) O-SO45 105 0 min 6,45 klux 44 W/m
05.05.2017 19:51 11,6 C 72 % 1016,8 hPa 0,0 l/m 7,0 km/h (2 Bft) O45 80 0 min 6,45 klux 44 W/m
05.05.2017 19:55 11,8 C 71 % 1016,8 hPa 0,0 l/m 12,5 km/h (2 Bft) O-NO22.5 70 0 min 6,45 klux 44 W/m
05.05.2017 20:00 11,9 C 71 % 1016,8 hPa 0,0 l/m 0,8 km/h (0 Bft) O-NO22.5 60 0 min 6,45 klux 44 W/m
05.05.2017 20:06 11,9 C 71 % 1016,8 hPa 0,0 l/m 14,7 km/h (3 Bft) O-NO22.5 70 0 min 6,45 klux 44 W/m
05.05.2017 20:10 11,8 C 70 % 1016,8 hPa 0,0 l/m 11,0 km/h (2 Bft) O22.5 80 0 min 6,45 klux 44 W/m
05.05.2017 20:15 11,7 C 71 % 1016,8 hPa 0,0 l/m 7,9 km/h (2 Bft) NO45 55 0 min 6,45 klux 44 W/m
05.05.2017 20:20 11,6 C 71 % 1016,8 hPa 0,0 l/m 8,5 km/h (2 Bft) O-NO22.5 75 0 min 6,45 klux 44 W/m
05.05.2017 20:25 11,5 C 71 % 1016,8 hPa 0,0 l/m 10,1 km/h (2 Bft) O-NO 60 5 min 6,45 klux 44 W/m
05.05.2017 20:30 11,4 C 72 % 1016,8 hPa 0,0 l/m 4,3 km/h (1 Bft) O-NO 65 5 min 6,45 klux 44 W/m
05.05.2017 20:35 11,2 C 72 % 1016,8 hPa 0,0 l/m 0,0 km/h (0 Bft) O-NO 60 5 min 6,45 klux 44 W/m
05.05.2017 20:40 11,1 C 72 % 1016,8 hPa 0,0 l/m 13,5 km/h (3 Bft) O-NO22.5 70 5 min 6,45 klux 44 W/m
05.05.2017 20:45 11,1 C 73 % 1016,8 hPa 0,0 l/m 9,2 km/h (2 Bft) O45 90 5 min 6,45 klux 44 W/m
05.05.2017 20:51 10,8 C 73 % 1016,8 hPa 0,0 l/m 5,4 km/h (2 Bft) O22.5 80 0 min 6,45 klux 44 W/m
05.05.2017 20:55 10,8 C 73 % 1016,8 hPa 0,0 l/m 8,7 km/h (2 Bft) O22.5 95 0 min 6,45 klux 44 W/m
05.05.2017 21:00 10,7 C 74 % 1016,8 hPa 0,0 l/m 10,8 km/h (2 Bft) O22.5 90 0 min 6,45 klux 0 W/m
05.05.2017 21:06 10,6 C 74 % 1016,8 hPa 0,0 l/m 9,8 km/h (2 Bft) O22.5 80 0 min 6,45 klux 0 W/m
05.05.2017 21:10 10,5 C 74 % 1016,8 hPa 0,0 l/m 9,0 km/h (2 Bft) O22.5 90 0 min 6,45 klux 0 W/m
05.05.2017 21:15 10,4 C 75 % 1016,8 hPa 0,0 l/m 8,7 km/h (2 Bft) O22.5 85 0 min 6,45 klux 0 W/m
05.05.2017 21:20 10,3 C 75 % 1016,8 hPa 0,0 l/m 6,8 km/h (2 Bft) O 85 0 min 6,45 klux 0 W/m
05.05.2017 21:25 10,2 C 75 % 1016,8 hPa 0,0 l/m 8,7 km/h (2 Bft) O22.5 85 0 min 6,45 klux 0 W/m
05.05.2017 21:31 10,2 C 75 % 1016,8 hPa 0,0 l/m 8,9 km/h (2 Bft) O22.5 85 0 min 6,45 klux 0 W/m
05.05.2017 21:35 10,2 C 76 % 1016,8 hPa 0,0 l/m 9,4 km/h (2 Bft) O22.5 80 0 min 6,45 klux 0 W/m
05.05.2017 21:40 10,1 C 76 % 1016,8 hPa 0,0 l/m 10,5 km/h (2 Bft) O45 90 0 min 6,45 klux 0 W/m
05.05.2017 21:45 10,1 C 76 % 1016,8 hPa 0,0 l/m 8,5 km/h (2 Bft) O-NO22.5 70 0 min 6,45 klux 0 W/m
05.05.2017 21:50 10,0 C 76 % 1016,8 hPa 0,0 l/m 6,3 km/h (2 Bft) NO 40 0 min 6,45 klux 0 W/m
05.05.2017 21:56 10,0 C 77 % 1016,8 hPa 0,0 l/m 10,8 km/h (2 Bft) NO22.5 40 0 min 6,45 klux 0 W/m
05.05.2017 22:00 10,0 C 77 % 1016,8 hPa 0,0 l/m 11,3 km/h (2 Bft) NO22.5 40 0 min 6,45 klux 0 W/m
05.05.2017 22:05 10,0 C 77 % 1016,8 hPa 0,0 l/m 10,8 km/h (2 Bft) NO22.5 35 0 min 6,45 klux 0 W/m
05.05.2017 22:11 10,0 C 77 % 1016,8 hPa 0,0 l/m 9,0 km/h (2 Bft) NO22.5 35 0 min 6,45 klux 0 W/m
05.05.2017 22:15 9,7 C 77 % 1016,8 hPa 0,0 l/m 3,8 km/h (1 Bft) N-NO 30 0 min 6,45 klux 0 W/m
05.05.2017 22:20 9,7 C 77 % 1016,8 hPa 0,0 l/m 6,1 km/h (2 Bft) NO 35 0 min 6,45 klux 0 W/m
05.05.2017 22:25 9,6 C 78 % 1016,8 hPa 0,0 l/m 7,2 km/h (2 Bft) N-NO22.5 30 0 min 6,45 klux 0 W/m
05.05.2017 22:30 9,5 C 78 % 1016,8 hPa 0,0 l/m 14,3 km/h (3 Bft) N-NO45 25 0 min 6,45 klux 0 W/m
05.05.2017 22:36 9,5 C 79 % 1016,8 hPa 0,0 l/m 10,1 km/h (2 Bft) NO45 35 0 min 6,45 klux 0 W/m
05.05.2017 22:40 9,5 C 79 % 1016,8 hPa 0,0 l/m 9,9 km/h (2 Bft) NO22.5 35 0 min 6,45 klux 0 W/m
05.05.2017 22:45 9,5 C 80 % 1016,8 hPa 0,0 l/m 10,4 km/h (2 Bft) NO22.5 45 0 min 6,45 klux 0 W/m
05.05.2017 22:50 9,6 C 80 % 1016,8 hPa 0,0 l/m 17,1 km/h (3 Bft) NO45 55 0 min 6,45 klux 0 W/m
05.05.2017 22:55 9,7 C 80 % 1016,8 hPa 0,0 l/m 19,2 km/h (3 Bft) O45 80 0 min 6,45 klux 0 W/m
05.05.2017 23:00 9,8 C 79 % 1016,8 hPa 0,0 l/m 17,3 km/h (3 Bft) NO22.5 50 0 min 6,45 klux 0 W/m
05.05.2017 23:05 9,8 C 79 % 1016,8 hPa 0,0 l/m 11,8 km/h (2 Bft) O-NO22.5 65 0 min 6,45 klux 0 W/m
05.05.2017 23:10 9,8 C 79 % 1015,8 hPa 0,0 l/m 17,7 km/h (3 Bft) O-NO45 60 0 min 6,45 klux 0 W/m
05.05.2017 23:15 9,8 C 79 % 1015,8 hPa 0,0 l/m 20,1 km/h (4 Bft) O-NO45 65 0 min 6,45 klux 0 W/m
05.05.2017 23:20 9,8 C 79 % 1015,8 hPa 0,0 l/m 23,8 km/h (4 Bft) O-NO45 70 0 min 6,45 klux 0 W/m
05.05.2017 23:25 9,8 C 79 % 1015,8 hPa 0,0 l/m 12,8 km/h (3 Bft) O-NO45 65 0 min 6,45 klux 0 W/m
05.05.2017 23:30 9,7 C 79 % 1015,8 hPa 0,0 l/m 20,1 km/h (4 Bft) O-NO45 60 0 min 6,45 klux 0 W/m
05.05.2017 23:35 9,6 C 80 % 1015,8 hPa 0,0 l/m 19,2 km/h (3 Bft) O-NO45 60 0 min 6,45 klux 0 W/m
05.05.2017 23:40 9,6 C 80 % 1015,8 hPa 0,0 l/m 20,8 km/h (4 Bft) O-NO45 60 0 min 6,45 klux 0 W/m
05.05.2017 23:45 9,5 C 80 % 1015,8 hPa 0,0 l/m 24,9 km/h (4 Bft) O-NO45 75 0 min 6,45 klux 0 W/m
05.05.2017 23:50 9,4 C 80 % 1015,8 hPa 0,0 l/m 20,3 km/h (4 Bft) O-NO45 70 0 min 6,45 klux 0 W/m
05.05.2017 23:55 9,4 C 81 % 1015,8 hPa 0,0 l/m 17,7 km/h (3 Bft) O-NO22.5 75 0 min 6,45 klux 0 W/m
_ Min-Zeit 06:00 16:20 23:10 - 08:30 - - - - -
Minimum _ 7,9 C 69 % 1015,8 hPa - 0,0 km/h (0 Bft) - - - - -
_ Max-Zeit 16:10 02:45 06:05 02:10 02:35 - - 06:15 00:00 06:05
Maximum _ 12,5 C 87 % 1018,8 hPa 0,1 l/m 26,7 km/h
NO (4 Bft)
- - 5 min 6,45 klux 44 W/m
Durchschnitt _ 9,8 C 79 % 1018,1 hPa #0,2 l/m 11,2 km/h (2 Bft) N-NO - #50 min. 6,45 klux 44 W/m